Simultaneous Nadir Overpasses (SNOs) Predictions

Prediction of SNOs between AQUA and NOAA-19 Satellite Orbit:

Table of predicted SNOs for the next 14.0 days since TLE Epoch: 8/13/2022
Index Date (AQUA) Time (AQUA) Lat,Lon (AQUA) SZA (AQUA ) Date (NOAA-19) Time (NOAA-19) Lat,Lon (NOAA-19) SZA (NOAA-19 ) Distance(km) Time Diff (sec)
1 08/14/2022 06:34:09 -77.40,-113.77 116.46 08/14/2022 06:33:10 -77.38,-113.71 116.47 3.40 59
2 08/14/2022 07:23:36 77.42, 53.79 63.58 08/14/2022 07:24:03 77.42, 53.77 63.57 0.58 27
3 08/16/2022 12:07:12 76.97, -15.37 63.71 08/16/2022 12:06:08 76.91, -18.98 63.93 91.11 64
4 08/16/2022 12:56:47 -77.40, 150.59 115.76 08/16/2022 12:57:02 -77.40, 150.53 115.76 1.41 15
5 08/18/2022 18:29:59 77.40,-112.68 64.94 08/18/2022 18:29:49 77.38,-112.68 64.93 1.32 10
6 08/21/2022 00:03:10 -77.39, -15.93 114.35 08/21/2022 00:02:48 -77.37, -15.92 114.36 2.09 22
7 08/21/2022 00:52:37 77.42, 151.58 65.70 08/21/2022 00:53:41 77.40, 151.50 65.67 3.19 64
8 08/23/2022 05:36:21 77.37, 80.86 66.36 08/23/2022 05:35:34 77.38, 81.00 66.38 3.42 47
9 08/23/2022 06:25:48 -77.42,-111.71 113.56 08/23/2022 06:26:39 -77.42,-111.56 113.59 3.62 51
10 08/25/2022 11:09:31 -77.33, 177.73 112.93 08/25/2022 11:08:33 -77.35, 177.72 112.89 2.43 58



Historial Predications of SNOs between AQUA and NOAA-19
